This is the latest recevied weather packets stored in our database for station/object I1SXT-13. If no packets are shown the sender has not sent any weather packets the latest 10 day(s).
| Time | Temp. | Humidity | Pressure | Rain* | Wind** | Luminosity | Snow |
|---|---|---|---|---|---|---|---|
| 1788320065 | 21.11° C | 87% | 1021.5 hPa | 0 mm | - | - | - |
| 1788319768 | 21.11° C | 87% | 1022.2 hPa | 0 mm | - | - | - |
| 1788319464 | 21.11° C | 86% | 1021.6 hPa | 0 mm | - | - | - |
| 1788319167 | 21.67° C | 85% | 1021.8 hPa | 0 mm | - | - | - |
| 1788317663 | 21.67° C | 84% | 1022.4 hPa | 0 mm | - | - | - |
| 1788316166 | 21.11° C | 88% | 1021.3 hPa | 0 mm | - | - | - |
| 1788314662 | 21.67° C | 89% | 1021.3 hPa | 0 mm | - | - | - |
| 1788314365 | 21.11° C | 89% | 1021.1 hPa | 0 mm | - | - | - |
| 1788313163 | 22.22° C | 85% | 1021.3 hPa | 0 mm | - | - | - |
| 1788312867 | 22.22° C | 85% | 1021.5 hPa | 0 mm | - | - | - |
| 1788311368 | 22.22° C | 84% | 1021.3 hPa | 0 mm | - | - | - |
| 1788308067 | 22.22° C | 85% | 1021.4 hPa | 0 mm | - | - | - |
| 1788307766 | 22.22° C | 84% | 1021.6 hPa | 0 mm | - | - | - |
| 1788306562 | 22.22° C | 86% | 1021.3 hPa | 0 mm | - | - | - |
| 1788306264 | 22.22° C | 86% | 1021.5 hPa | 0 mm | - | - | - |
| 1788305964 | 22.22° C | 86% | 1021.7 hPa | 0 mm | - | - | - |
| 1788305366 | 22.78° C | 86% | 1021.5 hPa | 0 mm | - | - | - |
| 1788303567 | 22.78° C | 87% | 1021.2 hPa | 0 mm | - | - | - |
| 1788301467 | 22.78° C | 85% | 1021 hPa | 0 mm | - | - | - |
| 1788301167 | 22.78° C | 86% | 1021.1 hPa | 0 mm | - | - | - |
| 1788297862 | 23.33° C | 85% | 1021.3 hPa | 0 mm | - | - | - |
| 1788296963 | 23.33° C | 86% | 1022.1 hPa | 0 mm | - | - | - |
| 1788296667 | 23.33° C | 86% | 1021.7 hPa | 0 mm | - | - | - |
| 1788296362 | 23.33° C | 86% | 1021.2 hPa | 0 mm | - | - | - |
| 1788296062 | 23.33° C | 86% | 1021.7 hPa | 0 mm | - | - | - |
* Rain since midnight (hover to see other rain measurements)
** Current wind speed in m/s (hover to see current wind gust speed)